Temperature
13 14 14 15 12 11 12 13 13 14 14 15 16 16 15 15 16 16 16 16 16 16 16 15 15 16 16 16 16 16 16 16 16 16 16 16 16 16 16 16 16 16 16 16 16 16 16 16 16
13 13 14 14 11 12 12 12 13 14 15 15 15 15 15 15 15 15 15 15 15 16 15 15 15 15 16 16 16 16 16 16 16 16 16 16 16 16 16 16 16 16 16 16 16 16 16 16 15
13 13 13 10 11 12 13 13 12 14 15 15 14 14 14 14 15 15 15 15 15 15 15 15 15 15 16 16 16 16 16 16 16 16 16 16 15 15 15 15 15 15 16 16 15 16 15 15 15
12 13 12 10 12 11 12 13 12 13 14 14 14 13 14 14 14 15 15 14 15 15 15 15 15 15 15 15 16 15 15 15 15 15 15 15 15 15 15 15 15 15 15 15 15 15 15 15 15
12 12 10 10 11 11 11 12 13 13 13 13 13 12 13 14 14 14 14 14 14 14 15 15 15 15 15 15 15 15 15 15 15 15 15 15 15 15 15 15 15 15 15 15 15 15 15 15 15
12 10 9 10 11 11 11 13 13 12 12 13 13 12 13 13 14 14 14 14 14 14 14 14 15 15 15 15 15 15 15 15 14 14 14 14 14 14 14 14 14 14 14 15 15 15 15 15 15
11 9 9 10 10 11 12 13 13 12 12 13 13 12 12 13 13 13 13 13 14 14 14 14 14 14 14 14 14 14 14 14 14 14 14 14 14 14 14 14 14 14 14 14 14 14 15 15 15
11 8 9 9 10 11 12 12 13 13 12 13 13 12 12 13 13 13 13 13 13 13 14 14 14 14 14 14 14 14 14 14 14 14 14 14 14 14 14 14 14 14 14 14 14 14 14 14 14
10 8 9 9 10 11 11 11 12 12 12 12 13 13 13 13 13 13 13 13 13 13 13 13 14 14 14 14 14 14 14 14 14 13 13 13 13 13 13 14 14 14 14 14 14 14 14 14 14
10 8 9 10 10 10 11 11 11 11 11 11 12 13 13 13 13 13 13 13 13 13 13 13 13 13 14 14 14 13 13 13 13 13 13 13 13 13 13 13 13 13 13 13 13 13 13 13 13
9 8 9 10 10 11 10 11 11 11 10 11 12 13 13 12 13 13 13 13 13 13 13 13 13 13 13 13 13 13 13 13 13 13 13 13 13 13 13 13 13 13 13 13 13 13 13 13 13
8 8 9 10 10 10 10 10 10 11 11 12 13 13 13 12 12 12 13 13 12 13 13 13 13 13 13 13 13 13 13 13 13 13 13 13 13 13 13 13 13 13 13 13 13 13 13 13 13
8 8 9 10 10 10 10 10 10 10 11 12 12 12 12 12 12 12 12 12 12 12 12 12 12 13 13 13 13 13 13 13 12 12 12 13 13 13 12 13 12 12 12 12 12 12 12 12 12
8 8 9 9 10 10 10 10 10 10 11 11 11 11 12 12 12 12 12 12 12 12 12 12 12 12 12 12 12 12 12 12 12 12 12 12 12 12 12 12 12 12 12 12 12 12 12 12 12
8 8 8 9 9 9 10 9 9 10 10 10 10 11 11 11 11 11 12 12 12 12 12 12 12 12 12 12 12 12 12 12 12 12 12 12 12 12 12 12 12 12 12 11 11 11 11 11 11
8 8 8 9 9 9 10 9 9 10 10 10 10 10 10 10 11 11 11 12 12 12 11 11 11 11 11 11 11 11 11 11 11 11 11 11 11 11 11 11 11 11 11 11 11 11 11 11 11
7 7 8 8 8 8 9 9 9 9 9 9 9 10 10 10 10 11 11 11 11 11 11 11 11 11 11 11 11 11 11 11 11 11 11 11 11 11 11 11 11 11 11 11 11 11 10 10 10
7 7 8 8 8 8 8 8 8 9 9 8 9 9 9 10 10 11 11 11 11 11 11 11 11 11 11 11 11 11 11 11 11 11 11 11 11 11 11 10 10 10 10 10 10 10 10 10 10
7 7 7 8 7 7 7 7 8 8 8 8 8 9 9 10 10 10 10 10 10 10 10 10 10 10 10 10 11 11 10 10 10 10 10 10 10 10 10 10 10 10 10 10 10 10 10 10 9
7 7 7 7 7 7 7 7 7 7 7 8 8 8 9 9 10 10 10 10 10 10 10 10 10 10 10 10 10 10 10 10 10 10 10 10 10 10 10 10 9 9 9 9 9 9 9 9 9
7 7 7 7 7 7 7 8 8 8 8 8 8 8 9 9 10 10 10 10 10 10 10 10 9 9 10 10 10 10 10 10 10 10 10 10 9 9 9 9 9 9 9 9 8 8 8 8 8
7 7 7 7 6 6 7 7 7 7 7 7 8 8 9 9 9 10 10 10 10 10 9 9 9 9 9 9 9 9 9 9 9 9 9 9 9 9 9 8 8 8 8 8 8 8 8 7 7
7 6 6 6 6 6 6 6 6 6 7 7 7 8 9 9 9 9 9 9 9 9 9 9 9 9 9 9 9 9 9 9 9 9 9 8 8 8 8 8 8 8 7 7 7 7 7 7 7
6 6 5 4 5 6 6 6 6 6 7 7 7 8 8 9 9 9 9 9 9 9 9 9 8 8 8 8 8 8 8 8 8 8 8 8 8 8 8 7 7 7 7 7 7 7 6 6 6
6 6 5 5 5 6 5 5 6 6 6 6 6 7 8 9 9 9 9 9 9 9 8 8 8 8 8 8 8 8 8 8 8 8 8 7 7 7 7 7 7 7 7 7 6 6 6 6 6
6 6 6 7 6 5 5 5 6 7 7 7 7 7 8 8 9 9 8 8 8 8 8 8 8 8 8 7 7 7 7 7 7 7 7 7 6 6 6 6 6 6 6 6 6 6 6 5 5
6 5 5 4 4 5 5 5 5 7 6 6 7 7 8 8 8 8 8 8 8 8 8 8 8 7 7 7 7 7 7 7 7 7 6 6 6 6 6 6 6 6 6 6 6 5 5 5 5
6 4 4 5 6 6 6 5 6 7 7 6 6 6 8 8 8 8 8 8 8 8 8 7 7 7 7 7 7 7 6 6 6 6 6 6 6 6 5 5 5 5 5 5 5 5 4 4 4
5 5 5 4 4 5 5 6 6 6 6 6 6 7 7 8 8 8 8 8 7 7 7 7 7 7 7 6 6 6 6 6 6 6 6 6 5 5 5 5 5 5 5 4 4 4 4 4 4
5 5 4 5 4 3 3 5 6 5 5 6 6 7 8 8 8 8 8 7 7 7 7 7 7 7 6 6 6 6 6 6 6 6 5 5 5 5 5 4 4 4 4 4 4 4 3 3 3
Wind_Speed
7 4 2 4 4 2 5 5 3 3 3 2 1 4 6 6 4 3 0 4 7 8 8 11 12 11 11 10 10 9 9 9 8 8 8 8 8 7 7 6 6 6 6 6 5 5 5 5 5
3 2 4 4 4 4 6 5 5 5 4 3 2 3 4 1 1 2 2 3 8 8 8 9 12 11 11 10 9 9 8 8 8 7 7 7 6 6 6 5 5 5 5 6 5 5 5 5 4
2 3 3 3 4 8 5 4 5 1 1 2 2 2 2 2 1 2 2 5 7 7 7 9 12 11 10 10 9 8 8 7 7 6 6 6 6 5 5 5 5 5 5 5 5 4 4 4 4
3 3 3 2 6 6 4 2 2 2 1 2 3 2 0 1 1 2 5 7 8 6 7 10 11 11 10 9 9 8 8 8 7 6 6 6 5 5 5 5 4 4 4 4 4 3 3 3 3
3 3 2 2 5 4 3 3 2 2 1 1 2 3 0 4 2 5 6 7 8 5 7 10 11 10 9 9 8 8 7 7 7 6 5 5 5 4 4 4 4 4 4 3 3 3 3 3 3
3 3 2 4 5 3 3 2 2 2 2 1 3 4 1 2 4 5 6 7 6 6 7 9 10 9 9 8 8 7 7 7 6 5 4 4 4 4 4 4 3 3 3 3 3 3 3 3 3
3 3 4 4 3 3 3 1 2 3 2 3 4 4 1 0 3 5 6 7 7 7 7 8 8 9 9 9 8 7 7 7 7 6 5 5 4 4 4 4 3 3 3 3 3 3 3 3 3
3 3 2 3 4 4 2 1 1 3 3 2 4 6 5 4 4 6 7 7 7 6 6 6 8 8 8 8 8 8 7 7 8 7 6 5 5 5 4 4 4 4 4 4 3 3 3 3 3
3 2 3 5 4 3 1 1 1 1 3 1 1 2 3 7 7 7 6 5 5 5 4 5 6 7 7 7 8 8 8 7 8 7 6 6 5 5 4 5 5 4 4 4 4 4 4 4 4
3 3 5 3 3 2 2 2 2 1 1 1 0 1 4 7 8 8 6 5 4 3 3 3 4 5 6 6 6 7 6 7 6 6 6 5 5 5 4 5 5 5 4 4 5 5 5 4 4
1 3 2 2 3 2 2 1 1 3 2 5 5 6 7 6 6 6 5 5 3 3 3 3 3 4 5 4 5 5 6 6 6 6 5 5 5 5 5 5 5 5 5 5 5 5 5 4 4
1 1 1 2 3 2 1 1 0 2 4 3 4 7 7 7 6 6 5 4 3 3 3 2 3 4 4 4 4 4 4 4 4 5 4 4 4 3 3 3 4 4 4 4 4 4 4 4 4
1 1 2 2 3 2 1 0 1 3 3 2 5 6 7 6 5 3 4 4 4 3 2 2 2 3 3 3 3 3 3 3 4 4 4 4 3 1 2 2 3 4 4 3 3 3 3 3 4
1 2 3 4 3 2 2 3 1 3 1 4 6 6 5 5 4 3 3 3 3 2 2 2 2 2 3 3 2 2 3 4 4 4 4 5 4 2 2 2 2 3 4 3 3 3 2 2 2
1 3 5 4 2 2 2 4 2 2 2 4 3 3 3 2 3 4 4 3 3 2 2 2 2 2 3 2 2 2 3 4 3 3 4 4 4 3 2 1 1 3 4 4 3 3 2 2 2
2 3 3 5 3 2 3 3 2 1 4 3 1 2 2 1 2 2 3 3 2 3 2 1 2 2 2 1 2 2 2 3 3 3 4 4 4 4 3 2 1 3 4 3 1 1 2 2 2
5 2 2 5 4 3 2 4 4 1 3 2 1 1 2 1 1 1 1 2 3 3 3 2 2 2 1 1 1 2 2 2 2 3 3 4 4 4 3 2 3 4 3 2 2 2 1 2 3
1 1 2 4 5 3 1 4 5 1 2 2 2 1 2 2 3 1 1 2 2 2 2 2 1 1 1 1 1 1 1 1 2 3 3 4 4 4 3 2 3 3 1 2 2 2 2 1 2
1 1 2 4 4 3 3 5 6 3 1 2 3 3 3 3 2 1 2 2 2 2 2 1 1 1 1 1 1 1 0 1 1 2 3 4 4 3 3 2 2 2 1 1 2 2 2 2 2
1 1 3 4 4 2 4 7 6 2 3 4 4 4 4 2 1 1 1 2 2 2 1 1 1 1 0 1 1 1 1 0 0 1 3 4 4 4 2 2 1 1 1 2 2 2 1 1 3
2 0 2 4 5 3 3 6 4 2 1 1 2 3 3 4 4 3 2 2 1 1 1 1 0 0 0 1 1 1 2 1 1 2 2 3 4 3 3 2 1 2 1 1 1 1 1 1 2
2 2 2 2 3 3 3 3 6 3 4 2 3 2 3 4 4 3 2 2 2 2 1 1 0 0 1 1 1 1 1 1 1 1 1 2 3 3 2 2 2 1 1 2 2 1 1 0 1
1 2 1 1 1 2 2 1 7 3 3 4 4 3 3 3 4 3 3 3 2 1 1 1 0 0 1 0 1 1 1 1 1 0 1 2 2 2 2 2 2 1 1 2 2 2 1 0 1
1 2 3 4 3 2 2 2 6 3 4 4 3 3 3 2 2 1 1 1 1 0 1 0 0 1 0 0 1 2 2 2 1 0 1 2 2 2 2 2 1 1 1 2 2 2 1 1 1
3 4 4 5 4 4 1 2 8 6 4 4 4 3 3 2 2 1 1 1 1 1 1 1 1 2 1 1 1 2 3 3 2 2 1 1 1 2 2 1 1 1 1 1 1 1 1 1 1
0 3 3 2 3 5 2 5 7 4 3 3 2 2 1 1 2 2 2 2 2 2 2 1 2 2 2 2 3 2 3 2 2 2 2 2 2 2 2 1 1 1 1 1 1 1 1 1 1
1 1 2 3 0 3 5 7 8 2 2 2 1 1 1 2 2 2 2 2 2 2 3 3 3 3 3 3 3 3 3 3 3 3 2 2 2 2 1 1 1 1 1 1 1 1 2 1 1
2 4 3 2 1 4 6 5 4 4 3 2 2 2 3 3 2 3 2 3 2 2 3 2 3 3 3 3 3 3 3 3 3 2 3 3 2 2 1 1 1 1 1 1 1 1 1 1 2
1 2 2 2 2 2 4 6 5 5 3 2 3 4 4 4 4 3 3 3 2 2 2 2 2 3 3 3 3 3 3 3 3 3 3 3 3 2 2 2 2 2 2 1 1 1 1 1 2
3 3 4 2 3 3 3 7 4 4 4 3 4 4 4 4 3 3 3 2 2 2 3 3 3 3 4 3 3 3 3 2 3 3 4 3 3 3 3 2 2 2 2 2 2 2 2 2 2
Wind_Direction
343 359 55 56 69 78 228 231 209 185 193 203 165 144 155 157 168 185 128 138 127 132 140 145 139 132 125 119 115 111 109 106 104 104 103 102 99 97 94 88 86 83 77 73 73 73 80 85 86
344 14 54 68 128 202 244 226 208 203 184 138 73 91 105 138 73 110 123 136 128 128 130 137 136 132 127 122 117 115 112 109 106 105 105 102 99 97 97 91 84 81 73 68 68 67 64 71 79
4 47 92 104 172 201 218 214 208 218 170 132 95 66 131 160 149 158 153 135 118 115 122 130 129 130 128 124 118 114 112 107 103 105 106 102 97 94 93 89 82 74 68 65 62 61 61 61 61
61 52 64 129 215 223 222 233 184 137 45 48 113 95 12 356 210 164 130 125 116 109 114 127 124 125 125 124 119 115 111 106 99 97 100 97 91 86 85 84 78 73 65 59 52 48 50 49 45
61 89 102 216 233 248 254 245 186 149 171 70 120 139 187 343 53 107 118 122 122 110 105 117 119 119 121 121 117 114 111 108 103 94 91 89 85 81 76 75 73 69 60 53 41 28 32 33 27
65 85 143 220 236 264 265 245 174 152 152 141 129 138 189 5 95 111 113 114 115 111 96 102 107 108 109 108 107 106 103 101 100 96 83 71 72 75 71 67 63 58 49 38 29 18 15 15 14
113 120 178 197 223 253 255 249 179 167 169 195 160 141 184 201 131 111 105 106 101 95 89 85 89 96 100 98 96 98 97 96 93 87 73 63 54 53 58 56 50 43 32 20 12 3 2 1 3
127 116 152 192 202 240 260 324 253 177 189 158 148 158 194 195 131 102 92 92 92 85 83 82 80 80 83 88 91 89 89 91 90 85 75 63 54 41 44 48 42 34 22 10 359 350 348 343 342
108 105 200 204 200 236 294 312 334 5 125 122 177 203 201 136 121 109 97 83 89 84 75 79 81 78 79 84 82 78 78 81 85 79 76 66 53 40 35 41 37 30 23 12 2 356 349 341 336
105 178 217 216 218 233 275 238 208 107 92 146 81 54 116 130 135 133 132 126 115 114 98 87 88 82 79 81 77 72 70 71 75 73 72 65 57 43 34 37 34 29 22 14 8 2 359 354 346
124 193 219 271 269 251 264 271 170 146 215 218 192 167 144 138 139 141 140 141 139 124 107 98 98 89 88 83 79 71 66 64 63 63 65 68 61 43 32 35 25 19 17 15 5 5 1 358 350
96 316 273 288 301 298 241 189 77 206 241 247 177 154 149 152 155 157 152 147 138 120 112 109 105 97 90 91 85 77 67 62 56 56 64 70 61 39 30 32 17 15 8 5 1 356 349 349 341
70 308 299 309 344 334 53 48 247 281 298 78 120 131 148 153 151 149 146 142 135 124 103 103 107 103 100 94 92 83 69 69 63 58 56 69 77 49 21 25 17 8 5 2 354 348 342 342 339
348 328 316 333 330 349 30 325 346 291 52 98 118 136 146 153 153 140 143 148 145 144 129 95 98 104 96 95 93 86 75 70 66 59 49 61 62 48 11 10 13 2 353 346 340 330 325 321 326
351 356 347 345 330 329 29 340 280 280 93 96 113 128 124 137 150 164 174 169 167 152 132 111 117 98 91 89 87 83 73 78 69 53 46 50 53 42 34 42 14 354 352 351 349 344 341 333 332
32 29 350 330 358 348 79 287 297 65 113 114 125 130 135 153 181 188 178 170 162 142 131 116 104 102 91 81 78 83 77 77 67 56 49 41 45 43 39 25 357 353 2 4 348 349 340 332 329
28 28 328 324 356 14 92 250 282 58 121 142 183 173 173 196 257 230 185 168 159 150 139 123 111 121 113 88 83 85 84 73 59 56 49 36 34 37 45 31 2 4 14 12 358 6 347 327 333
308 344 326 318 334 4 300 266 288 300 158 191 206 204 200 206 248 236 165 143 133 128 121 119 112 107 109 87 73 57 55 44 45 46 38 34 25 31 44 41 13 13 28 12 5 349 352 322 323
137 126 305 305 324 346 290 289 292 292 233 218 222 220 227 234 256 166 139 123 112 104 106 117 122 108 115 113 120 116 280 329 8 26 31 30 22 23 41 36 17 14 24 10 359 351 355 359 349
64 1 324 318 347 345 310 296 288 271 239 228 220 222 223 231 256 175 156 142 148 145 126 122 119 142 150 156 165 172 171 245 265 357 17 21 21 11 30 39 10 4 3 14 10 15 5 358 10
15 256 294 303 333 12 339 315 303 305 297 274 242 230 224 211 215 212 199 191 171 165 162 191 205 360 33 71 88 79 64 28 5 358 2 358 9 2 10 12 11 358 358 343 340 1 36 341 345
279 283 277 311 8 325 26 301 293 301 309 300 283 258 235 226 216 209 208 217 216 219 184 178 149 4 6 93 117 139 158 197 255 279 325 340 353 351 2 1 359 358 354 345 331 357 354 225 312
242 316 332 329 72 339 357 194 288 329 299 290 282 268 252 230 213 213 218 226 222 203 182 211 131 40 7 79 148 158 184 207 232 281 358 351 347 344 353 359 359 341 338 331 338 344 341 300 269
263 28 34 47 63 314 255 185 282 256 241 271 276 276 266 247 219 216 230 211 219 166 153 172 161 272 283 167 159 176 203 212 196 286 333 337 339 330 355 2 342 324 325 321 324 324 328 319 299
48 61 17 3 4 264 270 222 255 262 253 244 259 267 257 222 187 194 199 213 229 223 219 211 211 249 255 222 225 215 216 212 213 234 257 298 317 311 319 332 324 322 317 318 318 323 317 310 288
356 119 146 221 255 289 300 244 256 272 289 283 269 254 235 215 211 221 230 230 235 239 232 217 231 247 246 239 248 242 229 220 229 225 215 234 253 274 289 289 299 314 326 331 336 326 306 309 292
94 104 154 136 216 283 279 286 301 286 310 336 348 350 269 253 252 248 247 244 251 256 248 231 229 247 252 244 247 249 240 226 228 223 210 223 237 252 275 275 283 302 311 316 323 319 318 328 319
111 145 96 115 213 285 297 284 265 281 283 314 321 298 285 280 269 265 256 248 249 251 253 240 229 239 252 250 246 250 243 235 229 220 220 227 235 229 240 266 275 294 301 298 308 316 312 325 316
121 129 121 119 163 188 288 282 240 235 242 260 275 277 272 270 270 269 274 271 261 261 254 243 239 244 255 252 250 256 260 251 231 228 233 228 228 226 230 239 246 257 265 274 268 280 288 296 317
205 198 155 163 240 195 226 273 282 239 244 243 266 281 281 272 272 271 274 280 279 275 273 263 252 249 254 254 250 257 262 257 245 243 244 230 223 223 224 224 231 245 252 248 245 265 272 272 286
Height
1498 1500 1502 1504 1508 1517 1515 1510 1506 1505 1504 1503 1503 1504 1505 1507 1511 1515 1510 1510 1512 1515 1517 1520 1522 1524 1526 1527 1529 1530 1530 1531 1532 1533 1533 1534 1535 1536 1536 1537 1538 1539 1539 1540 1540 1541 1542 1542 1542
1498 1500 1503 1504 1512 1519 1513 1506 1505 1502 1501 1502 1502 1503 1504 1505 1506 1508 1508 1510 1513 1515 1517 1520 1522 1524 1526 1527 1528 1529 1530 1531 1532 1532 1533 1534 1534 1535 1536 1536 1537 1538 1538 1539 1540 1540 1541 1541 1542
1498 1500 1503 1505 1510 1512 1507 1502 1501 1500 1501 1501 1502 1503 1504 1505 1506 1507 1508 1510 1513 1515 1517 1520 1522 1523 1525 1527 1528 1529 1530 1530 1531 1532 1533 1533 1534 1534 1535 1535 1536 1537 1537 1538 1539 1539 1540 1540 1541
1499 1501 1503 1508 1507 1505 1502 1500 1500 1500 1501 1501 1501 1503 1504 1505 1506 1507 1508 1511 1513 1515 1518 1520 1522 1523 1525 1526 1527 1528 1529 1530 1530 1531 1532 1533 1533 1534 1534 1535 1535 1536 1536 1537 1538 1538 1539 1539 1540
1498 1500 1505 1508 1505 1502 1500 1499 1499 1500 1500 1501 1501 1502 1503 1505 1505 1507 1508 1511 1513 1515 1518 1520 1521 1523 1524 1525 1527 1528 1528 1529 1529 1530 1531 1532 1532 1533 1533 1534 1534 1535 1535 1536 1536 1537 1537 1538 1538
1499 1500 1509 1509 1504 1501 1499 1498 1499 1499 1500 1501 1501 1502 1503 1504 1505 1507 1509 1511 1513 1515 1518 1520 1521 1523 1524 1525 1526 1527 1527 1528 1528 1529 1530 1530 1531 1532 1532 1533 1533 1533 1534 1534 1535 1535 1535 1536 1536
1499 1502 1506 1506 1505 1502 1499 1498 1498 1498 1499 1500 1501 1502 1502 1504 1505 1507 1509 1511 1513 1515 1517 1519 1521 1522 1523 1524 1525 1526 1526 1527 1527 1528 1528 1529 1530 1531 1531 1531 1532 1532 1532 1533 1533 1533 1534 1534 1534
1497 1502 1505 1506 1504 1501 1498 1498 1497 1497 1498 1499 1500 1501 1501 1503 1504 1507 1509 1511 1513 1515 1517 1519 1520 1521 1522 1523 1524 1525 1525 1526 1526 1526 1528 1528 1529 1529 1530 1530 1530 1530 1531 1531 1531 1531 1531 1532 1532
1498 1504 1505 1503 1501 1499 1497 1498 1497 1497 1497 1498 1498 1499 1500 1502 1503 1506 1508 1510 1512 1514 1516 1518 1519 1520 1521 1522 1523 1524 1524 1525 1525 1525 1526 1527 1527 1528 1528 1529 1529 1529 1529 1529 1529 1529 1529 1529 1530
1498 1503 1500 1498 1498 1497 1496 1496 1496 1496 1496 1497 1497 1498 1499 1501 1503 1504 1506 1508 1511 1513 1515 1517 1518 1519 1520 1521 1522 1523 1523 1523 1524 1524 1524 1525 1526 1526 1526 1527 1527 1527 1527 1527 1527 1527 1527 1527 1527
1498 1500 1498 1497 1496 1496 1495 1495 1495 1496 1496 1495 1495 1496 1498 1500 1502 1504 1506 1508 1510 1512 1514 1516 1517 1518 1519 1520 1521 1521 1521 1522 1522 1522 1522 1523 1524 1524 1524 1525 1525 1525 1525 1525 1524 1524 1524 1524 1524
1499 1498 1498 1496 1495 1495 1495 1495 1495 1495 1494 1494 1494 1495 1497 1499 1501 1503 1505 1507 1509 1511 1513 1515 1516 1517 1518 1519 1519 1520 1520 1520 1520 1520 1521 1521 1522 1522 1522 1522 1522 1522 1522 1522 1522 1522 1522 1522 1521
1499 1499 1497 1496 1495 1495 1495 1495 1495 1494 1493 1493 1493 1495 1497 1499 1501 1504 1505 1507 1509 1510 1512 1513 1515 1516 1517 1518 1518 1518 1518 1519 1519 1519 1519 1519 1520 1520 1520 1520 1520 1520 1520 1519 1519 1519 1519 1519 1518
1499 1498 1497 1496 1495 1495 1495 1495 1495 1493 1493 1492 1493 1495 1497 1499 1501 1503 1505 1506 1508 1510 1511 1512 1514 1515 1515 1516 1517 1517 1517 1517 1517 1517 1517 1517 1517 1518 1518 1518 1517 1517 1517 1517 1516 1516 1516 1515 1515
1499 1499 1498 1496 1495 1495 1495 1496 1495 1493 1493 1493 1494 1495 1497 1499 1501 1502 1504 1505 1507 1509 1510 1511 1512 1513 1514 1514 1515 1515 1515 1515 1515 1515 1515 1515 1515 1515 1515 1515 1515 1514 1514 1514 1514 1513 1513 1512 1512
1500 1502 1503 1498 1496 1496 1499 1499 1494 1493 1493 1493 1494 1495 1496 1498 1500 1502 1503 1505 1506 1508 1509 1510 1511 1512 1512 1513 1513 1513 1513 1513 1513 1514 1513 1513 1513 1513 1512 1512 1512 1512 1511 1511 1511 1510 1509 1509 1508
1505 1507 1504 1501 1498 1497 1499 1499 1494 1493 1493 1494 1495 1495 1497 1498 1499 1501 1502 1504 1505 1506 1507 1508 1510 1510 1511 1511 1511 1512 1511 1511 1512 1512 1511 1511 1510 1510 1510 1510 1509 1509 1509 1508 1508 1507 1506 1506 1505
1509 1508 1506 1504 1501 1499 1500 1498 1494 1494 1494 1494 1494 1495 1496 1497 1498 1500 1501 1503 1504 1505 1506 1507 1508 1509 1509 1510 1510 1510 1510 1509 1509 1509 1509 1509 1508 1508 1508 1507 1507 1506 1506 1505 1505 1504 1503 1503 1502
1507 1508 1507 1505 1502 1502 1500 1498 1494 1493 1492 1493 1494 1494 1495 1496 1498 1499 1500 1501 1502 1503 1504 1506 1507 1507 1507 1508 1508 1507 1507 1507 1507 1507 1507 1506 1505 1505 1505 1505 1504 1504 1503 1502 1502 1501 1501 1500 1499
1507 1508 1508 1505 1502 1502 1501 1498 1493 1492 1491 1491 1492 1492 1493 1494 1496 1497 1499 1500 1501 1502 1503 1504 1504 1505 1504 1504 1505 1505 1504 1504 1504 1504 1504 1504 1504 1503 1503 1502 1501 1501 1500 1500 1499 1498 1497 1497 1497
1509 1509 1508 1508 1505 1503 1503 1498 1494 1491 1491 1490 1490 1491 1491 1492 1493 1496 1497 1498 1499 1500 1501 1502 1503 1503 1502 1502 1502 1502 1502 1502 1502 1502 1501 1501 1501 1501 1500 1499 1499 1498 1497 1496 1496 1496 1495 1494 1494
1509 1508 1508 1507 1509 1511 1508 1509 1496 1493 1491 1490 1489 1489 1490 1491 1493 1494 1495 1496 1498 1499 1500 1501 1501 1501 1500 1500 1500 1500 1499 1500 1500 1500 1499 1499 1498 1498 1497 1497 1496 1496 1495 1494 1494 1493 1492 1492 1491
1509 1508 1509 1509 1510 1513 1511 1511 1501 1495 1492 1489 1488 1488 1489 1490 1491 1493 1494 1496 1497 1498 1498 1499 1499 1499 1499 1498 1498 1498 1498 1497 1497 1497 1497 1497 1496 1496 1495 1494 1494 1494 1492 1491 1491 1490 1489 1489 1489
1509 1510 1510 1514 1515 1514 1511 1512 1503 1497 1491 1488 1487 1487 1487 1489 1490 1492 1493 1495 1495 1496 1497 1497 1497 1497 1497 1497 1496 1496 1496 1495 1495 1495 1494 1494 1493 1493 1492 1492 1492 1491 1490 1489 1488 1488 1487 1486 1486
1511 1515 1521 1520 1524 1517 1512 1511 1503 1490 1488 1487 1486 1486 1487 1488 1489 1491 1492 1493 1494 1494 1495 1495 1495 1496 1495 1495 1494 1494 1493 1493 1492 1492 1491 1491 1491 1490 1489 1489 1489 1488 1487 1486 1486 1485 1484 1484 1483
1513 1514 1521 1520 1522 1519 1513 1511 1497 1488 1486 1485 1485 1485 1486 1487 1488 1489 1491 1492 1492 1492 1493 1493 1493 1493 1493 1492 1492 1491 1491 1490 1490 1489 1489 1489 1488 1488 1487 1486 1485 1485 1484 1484 1483 1482 1481 1481 1480
1513 1517 1517 1523 1524 1523 1513 1506 1494 1486 1485 1485 1484 1484 1485 1486 1487 1488 1489 1490 1490 1491 1491 1491 1490 1490 1490 1490 1490 1489 1488 1488 1487 1486 1486 1486 1486 1485 1484 1483 1482 1481 1481 1481 1480 1479 1478 1477 1476
1514 1516 1522 1522 1519 1516 1509 1506 1499 1488 1486 1485 1484 1484 1484 1485 1486 1487 1488 1488 1488 1488 1488 1488 1488 1488 1488 1487 1487 1486 1486 1485 1484 1483 1483 1483 1482 1481 1481 1480 1479 1478 1478 1477 1476 1475 1475 1474 1473
1516 1516 1518 1523 1523 1522 1517 1504 1490 1487 1485 1485 1484 1483 1484 1484 1485 1485 1486 1486 1486 1486 1486 1485 1485 1485 1485 1484 1484 1483 1483 1482 1481 1480 1480 1480 1479 1478 1478 1477 1476 1475 1475 1474 1473 1472 1472 1471 1470
1514 1513 1517 1519 1521 1527 1526 1508 1485 1485 1483 1484 1483 1483 1483 1483 1484 1484 1484 1484 1483 1483 1483 1482 1482 1482 1482 1481 1480 1480 1479 1478 1477 1477 1477 1476 1476 1475 1474 1474 1473 1472 1471 1471 1470 1469 1468 1467 1466